| time (UTC) | temp F | wind direction | speed knots | gust knots | rain 1hr in | rain 24hr in | rain mn in | humidity % | barometer mb |
| 20260504185029 | 67 | 230 | 3.5 | 6.1 | 0.00 | 0.00 | 0.00 | 35 | 1007.3 |
| 20260504184026 | 68 | 231 | 4.3 | 12.2 | 0.00 | 0.00 | 0.00 | 35 | 1007.3 |
| 20260504183023 | 67 | 217 | 6.1 | 14.8 | 0.00 | 0.00 | 0.00 | 36 | 1007.5 |
| 20260504182020 | 66 | 210 | 7.0 | 15.6 | 0.00 | 0.00 | 0.00 | 36 | 1007.5 |
| 20260504181037 | 65 | 219 | 6.1 | 13.9 | 0.00 | 0.00 | 0.00 | 37 | 1007.6 |
| 20260504180034 | 65 | 218 | 5.2 | 13.9 | 0.00 | 0.00 | 0.00 | 37 | 1007.6 |
| 20260504175031 | 65 | 213 | 7.0 | 13.0 | 0.00 | 0.00 | 0.00 | 37 | 1007.6 |
| 20260504174048 | 66 | 215 | 8.7 | 16.5 | 0.00 | 0.00 | 0.00 | 36 | 1007.5 |
| 20260504173024 | 66 | 212 | 10.4 | 18.2 | 0.00 | 0.00 | 0.00 | 37 | 1007.5 |
| 20260504172022 | 65 | 203 | 7.0 | 13.9 | 0.00 | 0.00 | 0.00 | 37 | 1007.7 |
| 20260504171018 | 64 | 211 | 7.8 | 13.0 | 0.00 | 0.00 | 0.00 | 38 | 1007.8 |
| 20260504151020 | 59 | 206 | 7.8 | 13.9 | 0.00 | 0.00 | 0.00 | 40 | 1009.2 |
| 20260504141022 | 56 | 204 | 6.1 | 13.0 | 0.00 | 0.00 | 0.00 | 42 | 1009.5 |
| 20260504081030 | 47 | 204 | 4.3 | 6.1 | 0.00 | 0.00 | 0.00 | 52 | 1010.3 |
| 20260504045024 | 44 | 140 | 0.0 | 0.9 | 0.00 | 0.00 | 0.00 | 70 | 1010.3 |
| 20260504044021 | 44 | 0.0 | 0.9 | 0.00 | 0.00 | 0.00 | 68 | 1010.4 | |
| 20260504043018 | 44 | 169 | 0.0 | 0.9 | 0.00 | 0.00 | 0.00 | 68 | 1010.5 |
| 20260504042015 | 44 | 0.0 | 0.0 | 0.00 | 0.00 | 0.00 | 68 | 1010.6 | |
| 20260504041032 | 44 | 177 | 0.0 | 1.7 | 0.00 | 0.00 | 0.00 | 68 | 1010.6 |
| 20260504040029 | 43 | 178 | 0.9 | 1.7 | 0.00 | 0.00 | 0.00 | 71 | 1010.7 |
| 20260504035028 | 43 | 345 | 0.9 | 2.6 | 0.00 | 0.00 | 0.00 | 71 | 1010.8 |
| 20260504034023 | 43 | 14 | 0.9 | 1.7 | 0.00 | 0.00 | 0.00 | 72 | 1010.9 |
| 20260504033020 | 42 | 325 | 0.9 | 2.6 | 0.00 | 0.00 | 0.00 | 71 | 1010.9 |
| 20260504032035 | 42 | 134 | 0.0 | 0.9 | 0.00 | 0.00 | 0.00 | 71 | 1011.0 |
| 20260504031032 | 42 | 0.0 | 0.0 | 0.00 | 0.00 | 0.00 | 71 | 1010.8 | |
| 20260504030030 | 42 | 0.0 | 0.9 | 0.00 | 0.00 | 0.00 | 71 | 1010.9 | |
| 20260504025047 | 43 | 329 | 0.0 | 1.7 | 0.00 | 0.00 | 0.00 | 70 | 1010.9 |
| 20260504024045 | 42 | 342 | 0.0 | 0.9 | 0.00 | 0.00 | 0.00 | 70 | 1011.1 |
| 20260504023021 | 42 | 323 | 0.0 | 1.7 | 0.00 | 0.00 | 0.00 | 70 | 1011.0 |
| 20260504022018 | 42 | 336 | 0.0 | 1.7 | 0.00 | 0.00 | 0.00 | 70 | 1011.0 |
| 20260504021055 | 42 | 344 | 0.0 | 0.9 | 0.00 | 0.00 | 0.00 | 71 | 1011.1 |
| 20260504020032 | 42 | 336 | 0.9 | 1.7 | 0.00 | 0.00 | 0.00 | 71 | 1011.0 |
| 20260504015028 | 43 | 0.0 | 0.9 | 0.00 | 0.00 | 0.00 | 69 | 1010.9 | |
| 20260504014025 | 43 | 183 | 0.0 | 1.7 | 0.00 | 0.00 | 0.00 | 69 | 1010.8 |
| 20260504013022 | 43 | 0.0 | 0.9 | 0.00 | 0.00 | 0.00 | 68 | 1010.8 | |
| 20260504012039 | 43 | 340 | 0.0 | 1.7 | 0.00 | 0.00 | 0.00 | 66 | 1011.0 |
| 20260504011016 | 43 | 193 | 0.0 | 1.7 | 0.00 | 0.00 | 0.00 | 65 | 1010.8 |
| 20260504010033 | 43 | 333 | 0.0 | 1.7 | 0.00 | 0.00 | 0.00 | 64 | 1010.6 |
| 20260504005030 | 44 | 0.0 | 0.9 | 0.00 | 0.00 | 0.00 | 63 | 1010.4 | |
| 20260504004027 | 44 | 338 | 0.0 | 1.7 | 0.00 | 0.00 | 0.00 | 62 | 1010.2 |
| 20260504003024 | 45 | 301 | 0.0 | 1.7 | 0.00 | 0.00 | 0.00 | 60 | 1010.2 |
| 20260504002021 | 46 | 0.0 | 0.0 | 0.00 | 0.00 | 0.00 | 54 | 1010.1 | |
| 20260504001018 | 47 | 135 | 0.0 | 0.9 | 0.00 | 0.00 | 0.00 | 52 | 1010.1 |
| 20260504000035 | 49 | 310 | 0.0 | 0.9 | 0.00 | 0.00 | 0.00 | 49 | 1010.0 |
| 20260503235033 | 50 | 147 | 0.0 | 1.7 | 0.00 | 0.00 | 0.00 | 46 | 1009.9 |
| 20260503234029 | 50 | 124 | 0.0 | 1.7 | 0.00 | 0.00 | 0.00 | 45 | 1009.9 |
| 20260503233027 | 50 | 194 | 0.9 | 3.5 | 0.00 | 0.00 | 0.00 | 45 | 1009.8 |
| 20260503232024 | 51 | 249 | 2.6 | 4.3 | 0.00 | 0.00 | 0.00 | 44 | 1009.8 |
| 20260503231021 | 51 | 281 | 0.0 | 1.7 | 0.00 | 0.00 | 0.00 | 44 | 1010.0 |
| 20260503230017 | 51 | 212 | 1.7 | 5.2 | 0.00 | 0.00 | 0.00 | 44 | 1009.9 |
| 20260503225053 | 51 | 222 | 2.6 | 7.0 | 0.00 | 0.00 | 0.00 | 45 | 1010.0 |
| 20260503224031 | 51 | 327 | 1.7 | 6.1 | 0.00 | 0.00 | 0.00 | 45 | 1010.0 |
| 20260503223027 | 51 | 213 | 3.5 | 9.6 | 0.00 | 0.00 | 0.00 | 44 | 1010.0 |
| 20260503222044 | 51 | 226 | 2.6 | 9.6 | 0.00 | 0.00 | 0.00 | 44 | 1010.2 |
| 20260503221022 | 51 | 328 | 2.6 | 7.8 | 0.00 | 0.00 | 0.00 | 43 | 1010.0 |
| 20260503220019 | 52 | 326 | 3.5 | 7.8 | 0.00 | 0.00 | 0.00 | 41 | 1010.0 |
| 20260503215036 | 52 | 237 | 2.6 | 8.7 | 0.00 | 0.00 | 0.00 | 39 | 1009.9 |
| 20260503214053 | 52 | 336 | 2.6 | 7.8 | 0.00 | 0.00 | 0.00 | 39 | 1009.7 |
| 20260503213029 | 53 | 343 | 3.5 | 7.8 | 0.00 | 0.00 | 0.00 | 38 | 1009.6 |
| 20260503212027 | 53 | 230 | 1.7 | 5.2 | 0.00 | 0.00 | 0.00 | 38 | 1009.5 |
| 20260503211023 | 53 | 224 | 2.6 | 13.0 | 0.00 | 0.00 | 0.00 | 36 | 1009.6 |
| 20260503210041 | 54 | 304 | 3.5 | 10.4 | 0.00 | 0.00 | 0.00 | 35 | 1009.6 |
| 20260503205017 | 52 | 315 | 2.6 | 5.2 | 0.00 | 0.00 | 0.00 | 35 | 1009.5 |
| 20260503204034 | 52 | 330 | 2.6 | 10.4 | 0.00 | 0.00 | 0.00 | 35 | 1009.5 |
| 20260503203052 | 52 | 320 | 4.3 | 11.3 | 0.00 | 0.00 | 0.00 | 33 | 1009.5 |
| 20260503202028 | 53 | 335 | 3.5 | 9.6 | 0.00 | 0.00 | 0.00 | 33 | 1009.5 |
| 20260503201026 | 52 | 335 | 4.3 | 8.7 | 0.00 | 0.00 | 0.00 | 32 | 1009.6 |
| 20260503200022 | 53 | 357 | 3.5 | 8.7 | 0.00 | 0.00 | 0.00 | 31 | 1009.6 |
| 20260503195019 | 53 | 318 | 3.5 | 10.4 | 0.00 | 0.00 | 0.00 | 30 | 1009.9 |
| 20260503194016 | 53 | 322 | 3.5 | 7.8 | 0.00 | 0.00 | 0.00 | 30 | 1009.9 |
| 20260503193033 | 52 | 340 | 5.2 | 11.3 | 0.00 | 0.00 | 0.00 | 30 | 1010.1 |
| 20260503192030 | 52 | 319 | 5.2 | 13.0 | 0.00 | 0.00 | 0.00 | 30 | 1010.2 |
| 20260503191027 | 52 | 318 | 4.3 | 13.9 | 0.00 | 0.00 | 0.00 | 31 | 1010.2 |
| 20260503190024 | 52 | 289 | 3.5 | 7.8 | 0.00 | 0.00 | 0.00 | 32 | 1010.3 |